Copper Harbor, MI

2:20 AM EDT on April 28, 2017 (GMT -0400)
Copper Harbor

Weather History for KP59 - October, 2013

Change the Weather History Date:

Saturday, October 5, 2013

  Actual Average Record
Temperature  
Mean Temperature 50 °F -  
Max Temperature 53 °F 54 °F 78 °F (1996)
Min Temperature 48 °F 40 °F 1 °F (1996)
Degree Days  
Heating Degree Days 14    
Moisture  
Dew Point 46 °F    
Average Humidity 86    
Maximum Humidity 93    
Minimum Humidity 69    
Precipitation  
Precipitation 0.22 in - - ()
Sea Level Pressure  
Sea Level Pressure 30.07 in    
Wind  
Wind Speed 11 mph (SE)    
Max Wind Speed 13 mph    
Max Gust Speed 28 mph    
Averages and records for this station are not official NWS values.
T = Trace of Precipitation, MM = Missing Value Source: NWS Daily Summary

Daily Weather History Graph

Daily Weather History Graph

Search for Another Location

Airport or City:

Trip Planner

Search our weather history database for the weather conditions in past years. The results will help you decide how hot, cold, wet, or windy it might be!

Date:

Astronomy

Oct. 05, 2013 Rise Set
Actual Time 7:56 AM EDT 7:22 PM EDT
Civil Twilight 7:25 AM EDT 7:53 PM EDT
Nautical Twilight 6:50 AM EDT 8:28 PM EDT
Astronomical Twilight 6:14 AM EDT 9:04 PM EDT
Moon 8:40 AM EDT (10/5) 7:34 PM EDT (10/5)
Length of Visible Light 12h 27m
Length of Day
11h 26m
New Moon, 0% of the Moon is Illuminated
Oct 5
New Moon
Oct 11
First Quarter
Oct 18
Full
Oct 26
Last Quarter
Nov 3
New

Hourly Weather History & Observations

Time (EDT) Temp. Dew Point Humidity Pressure Visibility Wind Dir Wind Speed Gust Speed Precip Events Conditions
12:51 AM 53.1 °F 46.0 °F 77% 30.17 in - ESE 12.7 mph 27.6 mph N/A   Unknown
1:51 AM 53.1 °F 45.0 °F 74% 30.18 in - SE 12.7 mph 17.3 mph N/A   Unknown
2:51 AM 53.1 °F 44.1 °F 71% 30.16 in - SE 9.2 mph 19.6 mph N/A   Unknown
3:51 AM 53.1 °F 43.0 °F 69% 30.15 in - SE 10.4 mph 20.7 mph N/A   Unknown
4:51 AM 52.0 °F 44.1 °F 74% 30.15 in - SE 10.4 mph 23.0 mph N/A   Unknown
5:51 AM 51.1 °F 44.1 °F 77% 30.14 in - SE 9.2 mph 24.2 mph N/A   Unknown
6:51 AM 50.0 °F 45.0 °F 83% 30.14 in - SE 11.5 mph 20.7 mph 0.01 in   Unknown
7:51 AM 48.9 °F 46.0 °F 90% 30.14 in - SE 8.1 mph - 0.02 in   Unknown
8:51 AM 48.9 °F 46.9 °F 93% 30.10 in - SE 12.7 mph 23.0 mph 0.02 in   Unknown
9:51 AM 48.9 °F 46.0 °F 90% 30.10 in - SE 11.5 mph 26.5 mph 0.02 in   Unknown
10:51 AM 48.9 °F 46.0 °F 90% 30.10 in - SSE 11.5 mph 23.0 mph N/A   Unknown
11:51 AM 48.9 °F 46.0 °F 90% 30.10 in - SSE 8.1 mph 24.2 mph 0.01 in   Unknown
12:51 PM 48.9 °F 46.0 °F 90% 30.10 in - SE 12.7 mph 21.9 mph N/A   Unknown
1:51 PM 48.9 °F 46.9 °F 93% 30.08 in - SSE 12.7 mph 23.0 mph N/A   Unknown
2:51 PM 48.9 °F 46.9 °F 93% 30.05 in - SE 11.5 mph 21.9 mph N/A   Unknown
3:51 PM 48.0 °F 46.0 °F 93% 30.04 in - SE 10.4 mph 20.7 mph 0.04 in   Unknown
6:51 PM 48.9 °F 46.9 °F 93% 29.99 in - SSE 11.5 mph 21.9 mph 0.05 in   Unknown
7:51 PM 50.0 °F 46.9 °F 89% 29.97 in - SSE 8.1 mph 16.1 mph 0.03 in   Unknown
8:51 PM 50.0 °F 46.9 °F 89% 29.98 in - SE 6.9 mph 19.6 mph N/A   Unknown
9:51 PM 50.0 °F 48.0 °F 93% 29.94 in - SE 9.2 mph 17.3 mph N/A   Unknown
10:51 PM 50.0 °F 48.0 °F 93% 29.91 in - SSE 12.7 mph 26.5 mph N/A   Unknown
11:51 PM 50.0 °F 48.0 °F 93% 29.88 in - SE 11.5 mph 20.7 mph 0.02 in   Unknown